TimeMDT,TemperatureF,Dew PointF,Humidity,Sea Level PressureIn,VisibilityMPH,Wind Direction,Wind SpeedMPH,Gust SpeedMPH,PrecipitationIn,Events,Conditions,WindDirDegrees,DateUTC
12:55 AM,46.0,16.7,31,29.77,10.0,North,12.7,-,N/A,,Clear,360,2012-11-02 06:55:00
1:55 AM,53.1,12.2,20,29.75,10.0,NNW,9.2,-,N/A,,Partly Cloudy,340,2012-11-02 07:55:00
2:55 AM,54.7,10.8,17,29.75,10.0,NNE,9.2,-,N/A,,Clear,30,2012-11-02 08:55:00
3:55 AM,57.2,5.2,12,29.73,10.0,ENE,8.1,-,N/A,,Clear,70,2012-11-02 09:55:00
4:55 AM,56.1,5.9,13,29.75,10.0,Variable,5.8,-,N/A,,Partly Cloudy,0,2012-11-02 10:55:00
5:55 AM,52.0,7.0,16,29.78,10.0,NNW,3.5,-,N/A,,Clear,340,2012-11-02 11:55:00
6:55 AM,52.5,4.3,14,29.81,10.0,NW,4.6,-,N/A,,Clear,310,2012-11-02 12:55:00
7:55 AM,48.2,9.9,21,29.89,10.0,NNE,6.9,-,N/A,,Clear,30,2012-11-02 13:55:00
8:55 AM,49.6,13.8,24,29.91,10.0,NE,11.5,-,N/A,,Clear,40,2012-11-02 14:55:00
9:55 AM,51.8,18.7,27,29.90,10.0,North,9.2,-,N/A,,Clear,350,2012-11-02 15:55:00
10:55 AM,55.6,18.5,23,29.89,10.0,NNE,10.4,-,N/A,,Partly Cloudy,30,2012-11-02 16:55:00
11:55 AM,57.9,18.3,21,29.87,10.0,ENE,6.9,-,N/A,,Scattered Clouds,70,2012-11-02 17:55:00
12:55 PM,57.6,16.0,20,29.86,10.0,Variable,3.5,-,N/A,,Scattered Clouds,0,2012-11-02 18:55:00
1:55 PM,58.3,13.8,17,29.84,10.0,South,6.9,-,N/A,,Partly Cloudy,190,2012-11-02 19:55:00
2:55 PM,57.7,17.6,21,29.83,10.0,NNE,6.9,-,N/A,,Clear,20,2012-11-02 20:55:00
3:55 PM,54.5,23.2,30,29.84,10.0,East,3.5,-,N/A,,Partly Cloudy,80,2012-11-02 21:55:00
4:55 PM,53.4,23.7,32,29.85,10.0,East,3.5,-,N/A,,Clear,90,2012-11-02 22:55:00
5:55 PM,48.9,25.2,40,29.89,10.0,Calm,Calm,-,N/A,,Clear,0,2012-11-02 23:55:00
6:55 PM,44.8,25.7,47,29.95,10.0,North,6.9,-,N/A,,Clear,350,2012-11-03 00:55:00
7:55 PM,39.0,25.9,59,30.02,10.0,North,3.5,-,N/A,,Scattered Clouds,10,2012-11-03 01:55:00
8:55 PM,40.8,25.3,54,30.04,10.0,WSW,3.5,-,N/A,,Overcast,240,2012-11-03 02:55:00
9:55 PM,39.7,24.8,55,30.04,10.0,Calm,Calm,-,N/A,,Clear,0,2012-11-03 03:55:00
10:55 PM,37.8,25.0,60,30.05,10.0,Calm,Calm,-,N/A,,Clear,0,2012-11-03 04:55:00
11:55 PM,30.9,23.0,72,30.08,10.0,North,6.9,-,N/A,,Clear,350,2012-11-03 05:55:00